Flag for U.S.A. Weather past 2 weeks in Avalon (Santa Catalina Island), California, U.S.A.

59 °F


Feels Like: 58 °F
Forecast: 64 / 71 °F
Wind: 7 mph from Southwest

Location: Catalina Airport

Current Time: Oct 4, 2015 at 7:26:46 PM

Latest Report: Oct 4, 2015 at 7:02 PM

Visibility: 10 mi

Pressure: 29.71 "Hg

Humidity: 78%

Dew point: 52 °F

Location of Avalon (Santa Catalina Island)Location

Historic Weather in Avalon (Santa Catalina Island) — Graph


Avalon (Santa Catalina Island) temperature yesterday

Maximum temperature yesterday: 73 °F (at 12:51 PM)
Minimum temperature yesterday: 61 °F (at 9:51 PM)
Average temperature yesterday: 68 °F

Past Weeks' High & Low Weather Summary

High94 °F (Sep 20, 12:51 PM)100% (Sep 22, 5:51 AM)29.98 "Hg (Sep 22, 5:51 AM)
Low55 °F (Oct 4, 9:00 AM)14% (Sep 25, 8:51 PM)29.56 "Hg (Oct 3, 6:51 PM)
Average73 °F52%29.81 "Hg
* Reported Sep 19 5:51 PM — Oct 4 5:51 PM, Avalon (Santa Catalina Island), Weather by CustomWeather, © 2015

Note: Actual official high and low records may vary slightly from our data, if they occured in-between our weather recording intervals... More about our weather records


Avalon (Santa Catalina Island) weather history for previous 24 hours

Time TempWeatherWind HumidityBarometerVisibility
5:51 PM
Sun, Oct 4
61 °FOvercast.7 mph67%29.67 "Hg10 mi
4:51 PM62 °FMostly cloudy.10 mph70%29.66 "Hg10 mi
3:51 PM63 °FPassing clouds.5 mph63%29.65 "Hg10 mi
2:51 PM63 °FOvercast.9 mph63%29.65 "Hg10 mi
1:51 PM64 °FBroken clouds.10 mph63%29.64 "Hg10 mi
12:51 PM63 °FScattered clouds.14 mph65%29.65 "Hg10 mi
11:51 AM62 °FScattered clouds.12 mph67%29.66 "Hg10 mi
10:51 AM61 °FBroken clouds.14 mph81%29.65 "Hg10 mi
9:51 AM60 °FSunny.13 mph75%29.64 "Hg10 mi
9:03 AM55 °FFog.8 mph96%29.68 "Hg4 mi
9:00 AM55 °FLight rain. Fog.12 mph96%29.68 "Hg1 mi
7:51 AM58 °FMore clouds than sun.12 mph84%29.62 "Hg9 mi
6:51 AM56 °FOvercast.10 mph90%29.61 "Hg10 mi
5:51 AM56 °FLight rain. Fog.13 mph93%29.59 "Hg4 mi
4:51 AM58 °FLight rain. Fog.14 mph93%29.57 "Hg6 mi
3:55 AM57 °FFog.13 mph100%29.62 "Hg4 mi
2:51 AM59 °FMostly cloudy.10 mph93%29.58 "Hg8 mi
2:02 AM60 °FMostly cloudy.12 mph86%29.63 "Hg9 mi
1:51 AM60 °FMostly cloudy.8 mph86%29.57 "Hg10 mi
12:51 AM60 °FOvercast.9 mph90%29.57 "Hg9 mi
11:51 PM
Sat, Oct 3
61 °FLow clouds.7 mph87%29.57 "Hg10 mi
10:51 PM61 °FLow clouds.5 mph90%29.58 "Hg10 mi
9:51 PM61 °FLow clouds.6 mph90%29.57 "Hg10 mi
8:51 PM62 °FLow clouds.6 mph93%29.57 "Hg9 mi
7:51 PM63 °FLow clouds.6 mph93%29.56 "Hg8 mi
Weather by CustomWeather, © 2015

See weather overviewHow to use our weather pages